TAP1550 GVAC-LPPT

Flight info

Callsign TAP1550
Flight time N/A
Altitude 35000
Route DIMKI1A DIMKI DCT IPERA N873 LIMAL DCT UDATI DCT ODEGI DCT LOMAS DCT GDV DCT VASTO DCT BAROK DCT VATZI
Aircraft A321/M-SDE3FGHIRWY/LB1

Departure

Time 2026-04-23 18:24
Airport Amílcar Cabral International Airport (GVAC)

Arrival

Time N/A
Airport Lisbon Humberto Delgado Airport (LPPT)
Time Latitude Longitude Altitude Speed Heading
2026-04-23 18:18 16.73402 -22.94596 186 ft 0 kts 179°
2026-04-23 18:18 16.73392 -22.94595 186 ft 3 kts 178°
2026-04-23 18:19 16.73354 -22.94595 186 ft 7 kts 180°
2026-04-23 18:19 16.73300 -22.94594 187 ft 8 kts 179°
2026-04-23 18:19 16.73234 -22.94594 188 ft 10 kts 179°
2026-04-23 18:19 16.73157 -22.94593 188 ft 11 kts 180°
2026-04-23 18:20 16.73084 -22.94613 188 ft 11 kts 226°
2026-04-23 18:20 16.73033 -22.94683 188 ft 11 kts 207°
2026-04-23 18:20 16.72946 -22.94690 187 ft 13 kts 177°
2026-04-23 18:20 16.72847 -22.94690 185 ft 15 kts 180°
2026-04-23 18:21 16.72739 -22.94690 185 ft 15 kts 179°
2026-04-23 18:21 16.72631 -22.94689 184 ft 16 kts 179°
2026-04-23 18:21 16.72522 -22.94687 182 ft 15 kts 179°
2026-04-23 18:21 16.72432 -22.94696 181 ft 12 kts 211°
2026-04-23 18:22 16.72407 -22.94785 179 ft 12 kts 266°
2026-04-23 18:22 16.72405 -22.94867 179 ft 8 kts 278°
2026-04-23 18:22 16.72449 -22.94889 179 ft 2 kts 359°
2026-04-23 18:22 16.72518 -22.94890 179 ft 38 kts 360°
2026-04-23 18:23 16.73065 -22.94892 188 ft 108 kts 359°
2026-04-23 18:23 16.75215 -22.94914 622 ft 173 kts
2026-04-23 18:24 16.77534 -22.94929 2112 ft 162 kts
2026-04-23 18:24 16.78691 -22.94944 2427 ft 173 kts
2026-04-23 18:24 16.79936 -22.94950 2699 ft 187 kts
2026-04-23 18:25 16.82792 -22.94971 3247 ft 222 kts
2026-04-23 18:25 16.84391 -22.94986 3579 ft 239 kts
2026-04-23 18:25 16.86138 -22.95003 3952 ft 255 kts
2026-04-23 18:25 16.87931 -22.95020 4577 ft 261 kts 359°
2026-04-23 18:26 16.89784 -22.95038 5232 ft 266 kts 358°
2026-04-23 18:26 16.91628 -22.94911 5858 ft 273 kts 11°
2026-04-23 18:26 16.93421 -22.94153 6448 ft 282 kts 29°
2026-04-23 18:26 16.95071 -22.93002 7041 ft 287 kts 33°
2026-04-23 18:27 16.96696 -22.91802 7651 ft 292 kts 33°
2026-04-23 18:27 16.98360 -22.90570 8287 ft 295 kts 33°
2026-04-23 18:27 17.00053 -22.89324 8889 ft 300 kts 33°
2026-04-23 18:27 17.01769 -22.88071 9464 ft 304 kts 32°
2026-04-23 18:28 17.03518 -22.86800 10042 ft 308 kts 32°
2026-04-23 18:28 17.05303 -22.85508 10491 ft 318 kts 32°
2026-04-23 18:28 17.07168 -22.84160 10759 ft 333 kts 32°
2026-04-23 18:28 17.09118 -22.82754 11022 ft 348 kts 32°
2026-04-23 18:29 17.11160 -22.81280 11273 ft 362 kts 33°
2026-04-23 18:29 17.13278 -22.79750 11570 ft 374 kts 33°
2026-04-23 18:29 17.15413 -22.78202 12053 ft 378 kts 33°
2026-04-23 18:29 17.17579 -22.76634 12600 ft 381 kts 32°
2026-04-23 18:30 17.19763 -22.75053 13160 ft 383 kts 33°
2026-04-23 18:30 17.21975 -22.73451 13687 ft 386 kts 32°
2026-04-23 18:30 17.24203 -22.71838 14183 ft 389 kts 32°
2026-04-23 18:30 17.26417 -22.70234 14667 ft 392 kts 32°
2026-04-23 18:31 17.28671 -22.68600 15122 ft 396 kts 32°
2026-04-23 18:31 17.30954 -22.66945 15563 ft 400 kts 32°
2026-04-23 18:31 17.33253 -22.65281 16022 ft 402 kts 32°
2026-04-23 18:31 17.35550 -22.63618 16467 ft 405 kts 32°
2026-04-23 18:32 17.37898 -22.61913 16923 ft 407 kts 32°
2026-04-23 18:32 17.40250 -22.60208 17325 ft 410 kts 32°
2026-04-23 18:32 17.42620 -22.58487 17748 ft 412 kts 32°
2026-04-23 18:32 17.44997 -22.56762 18131 ft 415 kts 32°
2026-04-23 18:33 17.47396 -22.55020 18542 ft 417 kts 32°
2026-04-23 18:33 17.49806 -22.53269 18948 ft 419 kts 32°
2026-04-23 18:33 17.52219 -22.51513 19322 ft 422 kts 31°
2026-04-23 18:33 17.54643 -22.49752 19698 ft 424 kts 31°
2026-04-23 18:34 17.57076 -22.47983 20069 ft 426 kts 31°
2026-04-23 18:34 17.59501 -22.46219 20419 ft 429 kts 31°
2026-04-23 18:34 17.61982 -22.44414 20793 ft 431 kts 31°
2026-04-23 18:34 17.64418 -22.42640 21159 ft 432 kts 31°
2026-04-23 18:35 17.66923 -22.40817 21536 ft 434 kts 31°
2026-04-23 18:35 17.69392 -22.39020 21879 ft 436 kts 30°
2026-04-23 18:35 17.71888 -22.37201 22219 ft 438 kts 31°
2026-04-23 18:35 17.74392 -22.35376 22583 ft 439 kts 30°
2026-04-23 18:36 17.76922 -22.33532 22900 ft 442 kts 31°
2026-04-23 18:36 17.79456 -22.31683 23172 ft 445 kts 31°
2026-04-23 18:36 17.81997 -22.29828 23467 ft 447 kts 30°
2026-04-23 18:36 17.84558 -22.27958 23760 ft 449 kts 30°
2026-04-23 18:37 17.87102 -22.26101 24068 ft 451 kts 30°
2026-04-23 18:37 17.89724 -22.24295 24364 ft 451 kts 27°
2026-04-23 18:37 17.92430 -22.22597 24652 ft 452 kts 26°
2026-04-23 18:37 17.95150 -22.20923 24910 ft 454 kts 25°
2026-04-23 18:38 17.97904 -22.19238 25158 ft 457 kts 25°
2026-04-23 18:38 18.00668 -22.17544 25425 ft 459 kts 25°
2026-04-23 18:38 18.03419 -22.15856 25662 ft 462 kts 25°
2026-04-23 18:38 18.06205 -22.14144 25907 ft 464 kts 25°
2026-04-23 18:39 18.09009 -22.12418 26166 ft 466 kts 25°
2026-04-23 18:39 18.11782 -22.10709 26417 ft 468 kts 25°
2026-04-23 18:39 18.14615 -22.08961 26675 ft 469 kts 25°
2026-04-23 18:39 18.17453 -22.07211 26895 ft 472 kts 24°
2026-04-23 18:40 18.20265 -22.05475 27137 ft 473 kts 24°
2026-04-23 18:40 18.23135 -22.03704 27334 ft 476 kts 24°
2026-04-23 18:40 18.25998 -22.01939 27541 ft 478 kts 24°
2026-04-23 18:40 18.28839 -22.00184 27753 ft 480 kts 24°
2026-04-23 18:41 18.31748 -21.98388 27945 ft 482 kts 24°
2026-04-23 18:41 18.34642 -21.96599 28151 ft 483 kts 24°
2026-04-23 18:41 18.37556 -21.94796 28412 ft 484 kts 24°
2026-04-23 18:41 18.40463 -21.92995 28727 ft 483 kts 24°
2026-04-23 18:42 18.43335 -21.91215 29065 ft 482 kts 24°
2026-04-23 18:42 18.46224 -21.89427 29441 ft 480 kts 24°
2026-04-23 18:42 18.49084 -21.87656 29787 ft 479 kts 24°
2026-04-23 18:42 18.51981 -21.85861 30151 ft 477 kts 23°
2026-04-23 18:43 18.54806 -21.84110 30475 ft 477 kts 23°
2026-04-23 18:43 18.57679 -21.82328 30799 ft 476 kts 23°
2026-04-23 18:43 18.60544 -21.80553 31093 ft 477 kts 23°
2026-04-23 18:43 18.63397 -21.78783 31431 ft 476 kts 23°
2026-04-23 18:44 18.66238 -21.77018 31760 ft 475 kts 23°
2026-04-23 18:44 18.69104 -21.75238 32081 ft 475 kts 23°
2026-04-23 18:44 18.71923 -21.73486 32428 ft 474 kts 23°
2026-04-23 18:44 18.74765 -21.71719 32770 ft 473 kts 23°
2026-04-23 18:45 18.77613 -21.69948 33127 ft 473 kts 23°
2026-04-23 18:45 18.80428 -21.68198 33445 ft 473 kts 23°
2026-04-23 18:45 18.83285 -21.66422 33677 ft 475 kts 23°
2026-04-23 18:45 18.86156 -21.64635 33926 ft 476 kts 23°
2026-04-23 18:46 18.88999 -21.62866 34180 ft 478 kts 23°
2026-04-23 18:46 18.91871 -21.61078 34420 ft 479 kts 23°
2026-04-23 18:46 18.94745 -21.59285 34661 ft 480 kts 23°
2026-04-23 18:46 18.97629 -21.57487 34888 ft 481 kts 23°
2026-04-23 18:47 19.00485 -21.55706 34990 ft 483 kts 23°
2026-04-23 18:47 19.06266 -21.52096 34995 ft 483 kts 23°
2026-04-23 18:48 19.12074 -21.48466 34997 ft 483 kts 23°
2026-04-23 18:48 19.17833 -21.44865 34998 ft 483 kts 23°
2026-04-23 18:49 19.23633 -21.41235 35003 ft 483 kts 23°
2026-04-23 18:49 19.29416 -21.37612 35005 ft 484 kts 23°
2026-04-23 18:50 19.34264 -21.34575 35003 ft 484 kts 23°
2026-04-23 18:50 19.41011 -21.30343 35008 ft 486 kts 23°
2026-04-23 18:51 19.46832 -21.26686 35009 ft 485 kts 23°
2026-04-23 18:51 19.52630 -21.23045 35007 ft 486 kts 23°
2026-04-23 18:52 19.58468 -21.19373 35009 ft 487 kts 23°
2026-04-23 18:52 19.64286 -21.15710 35010 ft 487 kts 23°
2026-04-23 18:53 19.70106 -21.12043 35010 ft 487 kts 23°
2026-04-23 18:53 19.75952 -21.08357 35011 ft 487 kts 23°
2026-04-23 18:54 19.81759 -21.04694 35012 ft 488 kts 23°
2026-04-23 18:54 19.87594 -21.01007 35013 ft 488 kts 23°
2026-04-23 18:55 19.93508 -20.97269 35015 ft 489 kts 23°
2026-04-23 18:55 19.99367 -20.93563 35015 ft 489 kts 22°
2026-04-23 18:56 20.05212 -20.89860 35015 ft 490 kts 23°
2026-04-23 18:56 20.11090 -20.86134 35016 ft 489 kts 22°
2026-04-23 18:57 20.16930 -20.82428 35021 ft 489 kts 22°
2026-04-23 18:57 20.22776 -20.78717 35019 ft 489 kts 22°
2026-04-23 18:58 20.28620 -20.75005 35017 ft 490 kts 22°
2026-04-23 18:58 20.34466 -20.71283 35013 ft 490 kts 22°
2026-04-23 18:59 20.40294 -20.67569 35016 ft 489 kts 22°
2026-04-23 18:59 20.46136 -20.63837 35018 ft 488 kts 22°
2026-04-23 19:00 20.51941 -20.60128 35015 ft 488 kts 22°
2026-04-23 19:00 20.57759 -20.56406 35014 ft 488 kts 22°
2026-04-23 19:01 20.63604 -20.52664 35013 ft 488 kts 22°
2026-04-23 19:01 20.69423 -20.48934 35016 ft 489 kts 22°
2026-04-23 19:02 20.75274 -20.45181 35015 ft 488 kts 22°
2026-04-23 19:02 20.81061 -20.41461 35015 ft 487 kts 22°
2026-04-23 19:03 20.86885 -20.37721 35015 ft 489 kts 22°
2026-04-23 19:03 20.92708 -20.33974 35009 ft 488 kts 22°
2026-04-23 19:04 20.98538 -20.30221 35014 ft 488 kts 22°
2026-04-23 19:04 21.04363 -20.26468 35017 ft 489 kts 22°
2026-04-23 19:05 21.10179 -20.22715 35015 ft 489 kts 22°
2026-04-23 19:05 21.16000 -20.18957 35017 ft 489 kts 22°
2026-04-23 19:06 21.21814 -20.15199 35017 ft 489 kts 22°
2026-04-23 19:06 21.27653 -20.11423 35017 ft 490 kts 22°
2026-04-23 19:07 21.33470 -20.07655 35020 ft 489 kts 22°
2026-04-23 19:07 21.39279 -20.03888 35013 ft 488 kts 22°
2026-04-23 19:08 21.45111 -20.00107 35020 ft 489 kts 22°
2026-04-23 19:08 21.51058 -19.96244 35017 ft 488 kts 22°
2026-04-23 19:09 21.56944 -19.92420 35015 ft 489 kts 22°
2026-04-23 19:09 21.62824 -19.88597 35015 ft 489 kts 22°
2026-04-23 19:10 21.68623 -19.84819 35024 ft 489 kts 22°
2026-04-23 19:10 21.74430 -19.81033 35025 ft 489 kts 22°
2026-04-23 19:11 21.80256 -19.77231 35031 ft 488 kts 22°
2026-04-23 19:11 21.86068 -19.73437 35026 ft 490 kts 22°
2026-04-23 19:12 21.91881 -19.69634 35028 ft 489 kts 23°
2026-04-23 19:12 21.97691 -19.65831 35027 ft 489 kts 22°
2026-04-23 19:13 22.03580 -19.61975 35027 ft 488 kts 22°
2026-04-23 19:13 22.09418 -19.58149 35030 ft 490 kts 23°
2026-04-23 19:14 22.15207 -19.54349 35032 ft 489 kts 23°
2026-04-23 19:14 22.21037 -19.50520 35032 ft 488 kts 23°
2026-04-23 19:15 22.26822 -19.46717 35029 ft 488 kts 23°
2026-04-23 19:15 22.32749 -19.42815 35034 ft 488 kts 23°
2026-04-23 19:16 22.38566 -19.38984 35035 ft 489 kts 23°
2026-04-23 19:16 22.44344 -19.35170 35033 ft 489 kts 23°
2026-04-23 19:17 22.53071 -19.29408 35034 ft 489 kts 24°
2026-04-23 19:17 22.58897 -19.25556 35034 ft 490 kts 24°
2026-04-23 19:18 22.64691 -19.21719 35036 ft 489 kts 24°
2026-04-23 19:18 22.70516 -19.17860 35036 ft 490 kts 24°
2026-04-23 19:19 22.79419 -19.11953 35040 ft 489 kts 24°
2026-04-23 19:20 22.88127 -19.06167 35037 ft 490 kts 24°
2026-04-23 19:20 22.93912 -19.02318 35038 ft 490 kts 24°
2026-04-23 19:21 23.02622 -18.96515 35046 ft 489 kts 24°
2026-04-23 19:22 23.08408 -18.92655 35034 ft 488 kts 24°
2026-04-23 19:22 23.17093 -18.86857 35049 ft 489 kts 24°
2026-04-23 19:23 23.22877 -18.82991 35042 ft 489 kts 24°
2026-04-23 19:24 23.31562 -18.77176 35053 ft 488 kts 24°
2026-04-23 19:24 23.40376 -18.71263 35046 ft 488 kts 24°
2026-04-23 19:25 23.52063 -18.63413 35049 ft 487 kts 25°
2026-04-23 19:26 23.60704 -18.57596 35050 ft 487 kts 25°
2026-04-23 19:27 23.75103 -18.47884 35052 ft 487 kts 25°
2026-04-23 19:28 23.86643 -18.40082 35056 ft 486 kts 25°
2026-04-23 19:29 23.95220 -18.34272 35050 ft 485 kts 25°
2026-04-23 19:30 24.03830 -18.28432 35050 ft 487 kts 25°
2026-04-23 19:31 24.12455 -18.22568 35053 ft 485 kts 26°
2026-04-23 19:31 24.18187 -18.18669 35042 ft 485 kts 25°
2026-04-23 19:32 24.23915 -18.14767 35048 ft 485 kts 26°
2026-04-23 19:32 24.29634 -18.10867 35052 ft 484 kts 26°
2026-04-23 19:33 24.35336 -18.06977 35052 ft 484 kts 26°
2026-04-23 19:33 24.43924 -18.01105 35052 ft 484 kts 26°
2026-04-23 19:34 24.49604 -17.97219 35048 ft 484 kts 26°
2026-04-23 19:35 24.58182 -17.91339 35051 ft 483 kts 26°
2026-04-23 19:35 24.63873 -17.87434 35054 ft 484 kts 26°
2026-04-23 19:36 24.69586 -17.83506 35050 ft 482 kts 26°
2026-04-23 19:36 24.75278 -17.79590 35058 ft 482 kts 26°
2026-04-23 19:37 24.80934 -17.75697 35052 ft 481 kts 26°
2026-04-23 19:37 24.86586 -17.71802 35052 ft 481 kts 26°
2026-04-23 19:38 24.92294 -17.67861 35062 ft 481 kts 26°
2026-04-23 19:38 24.97949 -17.63954 35056 ft 481 kts 26°
2026-04-23 19:39 25.03612 -17.60035 35051 ft 481 kts 26°
2026-04-23 19:39 25.09263 -17.56121 35055 ft 481 kts 26°
2026-04-23 19:40 25.14918 -17.52195 35058 ft 480 kts 26°
2026-04-23 19:40 25.20584 -17.48258 35055 ft 479 kts 26°
2026-04-23 19:41 25.26200 -17.44354 35054 ft 480 kts 26°
2026-04-23 19:41 25.31856 -17.40415 35053 ft 480 kts 26°
2026-04-23 19:42 25.37476 -17.36498 35059 ft 479 kts 26°
2026-04-23 19:42 25.43107 -17.32569 35059 ft 478 kts 27°
2026-04-23 19:43 25.48769 -17.28615 35058 ft 479 kts 27°
2026-04-23 19:43 25.54393 -17.24680 35056 ft 479 kts 27°
2026-04-23 19:44 25.60008 -17.20748 35058 ft 479 kts 27°
2026-04-23 19:44 25.65618 -17.16815 35056 ft 479 kts 27°
2026-04-23 19:45 25.71244 -17.12866 35060 ft 478 kts 27°
2026-04-23 19:45 25.76882 -17.08905 35060 ft 478 kts 27°
2026-04-23 19:46 25.82491 -17.04961 35058 ft 478 kts 27°
2026-04-23 19:46 25.88084 -17.01023 35064 ft 478 kts 27°
2026-04-23 19:47 25.93689 -16.97069 35054 ft 477 kts 27°
2026-04-23 19:47 25.99326 -16.93092 35064 ft 478 kts 27°
2026-04-23 19:48 26.04911 -16.89146 35059 ft 478 kts 27°
2026-04-23 19:48 26.10520 -16.85176 35060 ft 476 kts 27°
2026-04-23 19:49 26.16133 -16.81201 35062 ft 475 kts 27°
2026-04-23 19:49 26.21699 -16.77255 35061 ft 475 kts 27°
2026-04-23 19:50 26.27292 -16.73300 35067 ft 476 kts 27°
2026-04-23 19:50 26.32846 -16.69367 35059 ft 475 kts 27°
2026-04-23 19:51 26.38445 -16.65395 35062 ft 475 kts 27°
2026-04-23 19:51 26.44007 -16.61444 35068 ft 476 kts 27°
2026-04-23 19:52 26.49598 -16.57469 35070 ft 475 kts 27°
2026-04-23 19:52 26.55158 -16.53509 35067 ft 474 kts 27°
2026-04-23 19:53 26.60697 -16.49563 35064 ft 474 kts 27°
2026-04-23 19:53 26.66264 -16.45589 35066 ft 473 kts 27°
2026-04-23 19:54 26.71812 -16.41626 35066 ft 474 kts 27°
2026-04-23 19:54 26.77381 -16.37645 35070 ft 474 kts 27°
2026-04-23 19:55 26.83032 -16.33596 35061 ft 474 kts 27°
2026-04-23 19:55 26.88594 -16.29609 35063 ft 474 kts 27°
2026-04-23 19:56 26.94133 -16.25628 35067 ft 473 kts 27°
2026-04-23 19:56 26.99658 -16.21649 35060 ft 472 kts 27°
2026-04-23 19:57 27.05164 -16.17680 35061 ft 472 kts 27°
2026-04-23 19:57 27.10690 -16.13693 35066 ft 472 kts 27°
2026-04-23 19:58 27.16316 -16.09625 35076 ft 471 kts 27°
2026-04-23 19:58 27.21808 -16.05649 35062 ft 472 kts 27°
2026-04-23 19:59 27.27333 -16.01642 35070 ft 472 kts 27°
2026-04-23 19:59 27.32825 -15.97659 35065 ft 471 kts 27°
2026-04-23 20:00 27.38346 -15.93651 35075 ft 472 kts 26°
2026-04-23 20:00 27.43871 -15.89633 35082 ft 471 kts 27°
2026-04-23 20:01 27.49376 -15.85625 35077 ft 471 kts 26°
2026-04-23 20:01 27.54857 -15.81631 35072 ft 470 kts 26°
2026-04-23 20:02 27.60367 -15.77611 35077 ft 470 kts 26°
2026-04-23 20:02 27.65832 -15.73618 35080 ft 470 kts 26°
2026-04-23 20:03 27.71313 -15.69609 35070 ft 471 kts 26°
2026-04-23 20:03 27.76814 -15.65582 35084 ft 470 kts 26°
2026-04-23 20:04 27.82306 -15.61555 35088 ft 470 kts 26°
2026-04-23 20:04 27.87777 -15.57540 35087 ft 470 kts 26°
2026-04-23 20:05 27.93384 -15.53419 35086 ft 470 kts 26°
2026-04-23 20:05 27.98852 -15.49395 35094 ft 470 kts 26°
2026-04-23 20:06 28.04307 -15.45376 35094 ft 470 kts 26°
2026-04-23 20:06 28.09842 -15.41290 35085 ft 470 kts 26°
2026-04-23 20:07 28.15306 -15.37233 35089 ft 470 kts 26°
2026-04-23 20:07 28.20756 -15.33179 35077 ft 469 kts 27°
2026-04-23 20:08 28.26214 -15.29118 35087 ft 470 kts 26°
2026-04-23 20:08 28.28934 -15.27091 34920 ft 469 kts 26°
2026-04-23 20:08 28.31676 -15.25047 35112 ft 469 kts 26°
2026-04-23 20:08 28.34409 -15.23008 34986 ft 470 kts 26°
2026-04-23 20:09 28.37145 -15.20969 35047 ft 472 kts 26°
2026-04-23 20:09 28.42617 -15.16879 35072 ft 472 kts 26°
2026-04-23 20:10 28.48082 -15.12791 35078 ft 471 kts 26°
2026-04-23 20:10 28.53572 -15.08681 35085 ft 471 kts 26°
2026-04-23 20:11 28.59049 -15.04575 35084 ft 471 kts 26°
2026-04-23 20:11 28.64518 -15.00467 35090 ft 470 kts 26°
2026-04-23 20:12 28.69954 -14.96381 35093 ft 471 kts 26°
2026-04-23 20:12 28.75400 -14.92282 35080 ft 471 kts 26°
2026-04-23 20:13 28.80892 -14.88143 35078 ft 471 kts 26°
2026-04-23 20:13 28.86326 -14.84042 35091 ft 471 kts 26°
2026-04-23 20:14 28.91829 -14.79882 35076 ft 470 kts 26°
2026-04-23 20:14 28.97242 -14.75788 35091 ft 470 kts 26°
2026-04-23 20:15 29.02688 -14.71663 35081 ft 469 kts 26°
2026-04-23 20:15 29.08111 -14.67459 35078 ft 475 kts 31°
2026-04-23 20:16 29.12772 -14.61960 35083 ft 493 kts 42°
2026-04-23 20:16 29.17512 -14.56341 35082 ft 489 kts 34°
2026-04-23 20:17 29.22868 -14.51641 35083 ft 481 kts 26°
2026-04-23 20:17 29.28426 -14.47420 35083 ft 482 kts 25°
2026-04-23 20:18 29.34076 -14.43152 35082 ft 486 kts 26°
2026-04-23 20:18 29.39699 -14.38867 35082 ft 487 kts 26°
2026-04-23 20:19 29.45336 -14.34552 35077 ft 486 kts 26°
2026-04-23 20:19 29.50940 -14.30257 35082 ft 487 kts 26°
2026-04-23 20:20 29.56622 -14.25897 35081 ft 493 kts 26°
2026-04-23 20:20 29.62411 -14.21444 35077 ft 493 kts 26°
2026-04-23 20:21 29.68214 -14.16976 35081 ft 494 kts 26°
2026-04-23 20:21 29.74089 -14.12445 35080 ft 494 kts 26°
2026-04-23 20:22 29.79892 -14.07962 35083 ft 494 kts 26°
2026-04-23 20:22 29.85619 -14.03534 35080 ft 494 kts 26°
2026-04-23 20:23 29.91456 -13.99017 35077 ft 495 kts 26°
2026-04-23 20:23 29.97188 -13.94572 35079 ft 496 kts 26°
2026-04-23 20:24 30.02929 -13.90115 35076 ft 496 kts 26°
2026-04-23 20:24 30.08704 -13.85622 35077 ft 496 kts 26°
2026-04-23 20:25 30.14426 -13.81163 35078 ft 495 kts 26°
2026-04-23 20:25 30.20147 -13.76702 35075 ft 495 kts 26°
2026-04-23 20:26 30.25857 -13.72244 35076 ft 496 kts 26°
2026-04-23 20:26 30.31578 -13.67769 35076 ft 497 kts 26°
2026-04-23 20:27 30.37332 -13.63264 35076 ft 497 kts 26°
2026-04-23 20:27 30.43039 -13.58784 35077 ft 496 kts 26°
2026-04-23 20:28 30.48769 -13.54363 35077 ft 493 kts 23°
2026-04-23 20:28 30.54692 -13.50548 35078 ft 488 kts 19°
2026-04-23 20:29 30.60719 -13.46904 35078 ft 488 kts 19°
2026-04-23 20:29 30.66720 -13.43272 35077 ft 488 kts 19°
2026-04-23 20:30 30.72765 -13.39594 35077 ft 489 kts 19°
2026-04-23 20:30 30.81802 -13.34076 35074 ft 489 kts 19°
2026-04-23 20:31 30.87804 -13.30403 35076 ft 489 kts 19°
2026-04-23 20:31 30.93830 -13.26711 35078 ft 490 kts 19°
2026-04-23 20:32 30.99889 -13.22991 35078 ft 489 kts 19°
2026-04-23 20:32 31.05939 -13.19272 35075 ft 489 kts 19°
2026-04-23 20:33 31.11975 -13.15558 35073 ft 490 kts 19°
2026-04-23 20:33 31.17993 -13.11849 35077 ft 490 kts 19°
2026-04-23 20:34 31.24026 -13.08124 35075 ft 490 kts 19°
2026-04-23 20:34 31.30088 -13.04376 35073 ft 490 kts 19°
2026-04-23 20:35 31.36113 -13.00647 35074 ft 490 kts 19°
2026-04-23 20:35 31.42110 -12.96927 35074 ft 490 kts 19°
2026-04-23 20:36 31.48138 -12.93184 35072 ft 490 kts 19°
2026-04-23 20:36 31.54169 -12.89435 35072 ft 491 kts 19°
2026-04-23 20:37 31.60216 -12.85670 35067 ft 491 kts 19°
2026-04-23 20:37 31.66232 -12.81916 35068 ft 490 kts 19°
2026-04-23 20:38 31.72227 -12.78171 35069 ft 490 kts 19°
2026-04-23 20:38 31.78254 -12.74401 35069 ft 490 kts 19°
2026-04-23 20:39 31.84271 -12.70633 35062 ft 490 kts 19°
2026-04-23 20:39 31.90270 -12.66870 35068 ft 491 kts 19°
2026-04-23 20:40 31.96272 -12.63098 35066 ft 491 kts 19°
2026-04-23 20:40 32.02308 -12.59298 35068 ft 489 kts 19°
2026-04-23 20:41 32.08306 -12.55520 35067 ft 490 kts 19°
2026-04-23 20:41 32.14310 -12.51731 35068 ft 489 kts 19°
2026-04-23 20:42 32.20290 -12.47950 35064 ft 489 kts 19°
2026-04-23 20:42 32.26319 -12.44135 35058 ft 490 kts 19°
2026-04-23 20:43 32.32308 -12.40339 35061 ft 492 kts 19°
2026-04-23 20:43 32.38339 -12.36509 35058 ft 491 kts 20°
2026-04-23 20:44 32.44374 -12.32672 35060 ft 492 kts 20°
2026-04-23 20:44 32.50417 -12.28820 35055 ft 493 kts 20°
2026-04-23 20:45 32.56431 -12.24985 35059 ft 492 kts 20°
2026-04-23 20:45 32.62453 -12.21137 35056 ft 493 kts 20°
2026-04-23 20:46 32.68506 -12.17264 35058 ft 494 kts 20°
2026-04-23 20:46 32.74520 -12.13409 35057 ft 493 kts 20°
2026-04-23 20:47 32.80577 -12.09521 35059 ft 492 kts 21°
2026-04-23 20:47 32.86615 -12.05642 35058 ft 493 kts 21°
2026-04-23 20:48 32.92645 -12.01761 35058 ft 494 kts 21°
2026-04-23 20:48 32.98703 -11.97854 35060 ft 494 kts 21°
2026-04-23 20:49 33.04734 -11.93958 35066 ft 494 kts 21°
2026-04-23 20:49 33.10789 -11.90039 35065 ft 493 kts 21°
2026-04-23 20:50 33.16471 -11.85323 35068 ft 505 kts 33°
2026-04-23 20:50 33.22127 -11.80624 35066 ft 482 kts 21°
2026-04-23 20:51 33.27984 -11.77032 35067 ft 472 kts 20°
2026-04-23 20:51 33.33814 -11.73480 35066 ft 472 kts 20°
2026-04-23 20:52 33.39643 -11.69857 35069 ft 472 kts 21°
2026-04-23 20:52 33.45480 -11.66194 35060 ft 473 kts 21°
2026-04-23 20:53 33.51304 -11.62523 35061 ft 474 kts 21°
2026-04-23 20:53 33.57344 -11.58705 35060 ft 473 kts 21°
2026-04-23 20:54 33.63424 -11.54859 35060 ft 474 kts 22°
2026-04-23 20:54 33.69250 -11.51168 35061 ft 474 kts 22°
2026-04-23 20:55 33.75076 -11.47469 35059 ft 475 kts 22°
2026-04-23 20:55 33.80907 -11.43759 35060 ft 475 kts 22°
2026-04-23 20:56 33.86753 -11.40035 35059 ft 475 kts 23°
2026-04-23 20:56 33.92588 -11.36317 35058 ft 475 kts 23°
2026-04-23 20:57 33.98473 -11.32554 35056 ft 475 kts 24°
2026-04-23 20:57 34.04333 -11.28805 35056 ft 477 kts 24°
2026-04-23 20:58 34.10173 -11.25062 35053 ft 477 kts 24°
2026-04-23 20:58 34.16033 -11.21302 35055 ft 478 kts 25°
2026-04-23 20:59 34.21920 -11.17514 35056 ft 479 kts 25°
2026-04-23 20:59 34.28124 -11.13519 35056 ft 478 kts 25°
2026-04-23 21:00 34.34178 -11.09614 35056 ft 478 kts 25°
2026-04-23 21:00 34.40015 -11.05843 35057 ft 479 kts 25°
2026-04-23 21:01 34.45892 -11.02041 35057 ft 479 kts 25°
2026-04-23 21:01 34.51843 -10.98182 35058 ft 478 kts 25°
2026-04-23 21:02 34.57786 -10.94324 35062 ft 479 kts 25°
2026-04-23 21:02 34.63824 -10.90397 35075 ft 480 kts 26°
2026-04-23 21:03 34.69672 -10.86587 35074 ft 480 kts 26°
2026-04-23 21:03 34.75567 -10.82741 35084 ft 480 kts 26°
2026-04-23 21:04 34.81432 -10.78908 35085 ft 480 kts 26°
2026-04-23 21:04 34.87342 -10.75042 35081 ft 480 kts 26°
2026-04-23 21:05 34.93214 -10.71191 35088 ft 480 kts 26°
2026-04-23 21:05 34.99089 -10.67333 35081 ft 480 kts 26°
2026-04-23 21:06 35.04995 -10.63448 35081 ft 480 kts 26°
2026-04-23 21:06 35.10844 -10.59593 35082 ft 479 kts 26°
2026-04-23 21:07 35.16706 -10.55725 35069 ft 479 kts 27°
2026-04-23 21:07 35.22849 -10.51663 35064 ft 480 kts 27°
2026-04-23 21:08 35.28812 -10.47717 35071 ft 481 kts 27°
2026-04-23 21:08 35.34686 -10.43820 35055 ft 481 kts 27°
2026-04-23 21:09 35.40570 -10.39909 35063 ft 481 kts 27°
2026-04-23 21:09 35.46435 -10.36007 35052 ft 481 kts 27°
2026-04-23 21:10 35.52314 -10.32086 35058 ft 481 kts 28°
2026-04-23 21:10 35.58176 -10.28172 35060 ft 481 kts 28°
2026-04-23 21:11 35.64071 -10.24229 35057 ft 481 kts 28°
2026-04-23 21:11 35.69935 -10.20300 35065 ft 482 kts 29°
2026-04-23 21:12 35.75796 -10.16365 35055 ft 481 kts 29°
2026-04-23 21:12 35.81658 -10.12425 35053 ft 482 kts 29°
2026-04-23 21:13 35.87546 -10.08462 35061 ft 483 kts 29°
2026-04-23 21:13 35.93438 -10.04485 35049 ft 483 kts 29°
2026-04-23 21:14 35.99480 -10.00374 35042 ft 483 kts 30°
2026-04-23 21:14 36.05609 -9.96104 35042 ft 483 kts 31°
2026-04-23 21:15 36.11543 -9.91961 35033 ft 483 kts 31°
2026-04-23 21:15 36.17661 -9.87687 35036 ft 484 kts 31°
2026-04-23 21:16 36.23767 -9.83417 35034 ft 484 kts 31°
2026-04-23 21:16 36.29728 -9.79244 35036 ft 483 kts 31°
2026-04-23 21:17 36.35676 -9.75072 35038 ft 483 kts 31°
2026-04-23 21:17 36.41515 -9.70968 35038 ft 483 kts 31°
2026-04-23 21:18 36.47322 -9.66882 35035 ft 483 kts 31°
2026-04-23 21:18 36.53159 -9.62763 35035 ft 483 kts 31°
2026-04-23 21:19 36.59022 -9.58621 35039 ft 483 kts 31°
2026-04-23 21:19 36.64851 -9.54498 35041 ft 483 kts 31°
2026-04-23 21:20 36.70685 -9.50363 35038 ft 483 kts 31°
2026-04-23 21:20 36.76518 -9.46221 35042 ft 483 kts 31°
2026-04-23 21:21 36.82371 -9.42056 35043 ft 483 kts 31°
2026-04-23 21:21 36.88203 -9.37898 35035 ft 483 kts 31°
2026-04-23 21:22 36.94037 -9.33734 35041 ft 483 kts 32°
2026-04-23 21:22 36.99859 -9.29570 35041 ft 483 kts 32°
2026-04-23 21:23 37.05714 -9.25376 35039 ft 483 kts 32°
2026-04-23 21:23 37.11534 -9.21199 35037 ft 483 kts 32°
2026-04-23 21:24 37.17362 -9.17007 35042 ft 482 kts 32°
2026-04-23 21:24 37.23151 -9.12835 35039 ft 482 kts 32°
2026-04-23 21:25 37.28961 -9.08642 34879 ft 483 kts 32°
2026-04-23 21:25 37.31864 -9.06547 34668 ft 481 kts 32°
2026-04-23 21:25 37.34765 -9.04451 34387 ft 479 kts 32°
2026-04-23 21:26 37.37651 -9.02364 33890 ft 477 kts 33°
2026-04-23 21:26 37.40525 -9.00280 33265 ft 476 kts 33°
2026-04-23 21:26 37.43368 -8.98217 32582 ft 477 kts 33°
2026-04-23 21:26 37.46240 -8.96131 31853 ft 479 kts 33°
2026-04-23 21:27 37.49117 -8.94041 31106 ft 480 kts 33°
2026-04-23 21:27 37.52018 -8.91929 30335 ft 481 kts 33°
2026-04-23 21:27 37.54903 -8.89828 29513 ft 481 kts 33°
2026-04-23 21:27 37.57894 -8.88073 28901 ft 479 kts 18°
2026-04-23 21:28 37.61125 -8.87353 28644 ft 469 kts
2026-04-23 21:28 37.64356 -8.86799 28105 ft 465 kts 10°
2026-04-23 21:28 37.67557 -8.86100 26970 ft 473 kts
2026-04-23 21:28 37.70756 -8.86255 26102 ft 459 kts 346°
2026-04-23 21:29 37.73691 -8.87605 25257 ft 440 kts 332°
2026-04-23 21:29 37.76367 -8.89331 24533 ft 422 kts 329°
2026-04-23 21:29 37.78904 -8.90974 23711 ft 411 kts 331°
2026-04-23 21:29 37.81473 -8.92534 22644 ft 406 kts 333°
2026-04-23 21:30 37.84003 -8.93981 21637 ft 401 kts 334°
2026-04-23 21:30 37.86526 -8.95369 20662 ft 394 kts 334°
2026-04-23 21:30 37.89010 -8.96710 19703 ft 387 kts 335°
2026-04-23 21:30 37.91464 -8.98022 18753 ft 381 kts 335°
2026-04-23 21:31 37.93884 -8.99314 17881 ft 373 kts 335°
2026-04-23 21:31 37.96192 -9.00543 17342 ft 357 kts 335°
2026-04-23 21:31 37.98458 -9.01750 16754 ft 345 kts 335°
2026-04-23 21:31 38.00631 -9.02855 16200 ft 334 kts 338°
2026-04-23 21:32 38.02788 -9.03816 15563 ft 328 kts 339°
2026-04-23 21:32 38.04946 -9.04747 14860 ft 324 kts 339°
2026-04-23 21:32 38.07050 -9.05643 14148 ft 320 kts 340°
2026-04-23 21:32 38.09154 -9.06533 13592 ft 319 kts 340°
2026-04-23 21:33 38.11264 -9.07425 13148 ft 318 kts 340°
2026-04-23 21:33 38.13386 -9.08324 12734 ft 316 kts 340°
2026-04-23 21:33 38.15448 -9.09192 12572 ft 305 kts 341°
2026-04-23 21:33 38.17421 -9.09576 12394 ft 298 kts
2026-04-23 21:34 38.19321 -9.08701 12097 ft 293 kts 38°
2026-04-23 21:34 38.20736 -9.06860 11753 ft 288 kts 53°
2026-04-23 21:34 38.21942 -9.04835 11415 ft 286 kts 54°
2026-04-23 21:34 38.23130 -9.02854 11074 ft 285 kts 53°
2026-04-23 21:35 38.24795 -9.00258 10617 ft 282 kts 51°
2026-04-23 21:35 38.25644 -8.98987 10397 ft 281 kts 51°
2026-04-23 21:35 38.26922 -8.97108 10059 ft 280 kts 50°
2026-04-23 21:35 38.28184 -8.95267 9724 ft 277 kts 50°
2026-04-23 21:36 38.30838 -8.91754 9012 ft 275 kts 30°
2026-04-23 21:36 38.32657 -8.91170 8662 ft 271 kts 354°
2026-04-23 21:36 38.34371 -8.91942 8339 ft 264 kts 321°
2026-04-23 21:37 38.35687 -8.93536 8034 ft 259 kts 312°
2026-04-23 21:37 38.36917 -8.95173 7717 ft 257 kts 313°
2026-04-23 21:37 38.38170 -8.96792 7398 ft 256 kts 314°
2026-04-23 21:37 38.39332 -8.98486 7108 ft 250 kts 297°
2026-04-23 21:38 38.39642 -9.00554 7035 ft 236 kts 261°
2026-04-23 21:38 38.39043 -9.02455 7050 ft 233 kts 236°
2026-04-23 21:38 38.38114 -9.04143 7048 ft 232 kts 235°
2026-04-23 21:38 38.37190 -9.05828 7040 ft 232 kts 236°
2026-04-23 21:39 38.36280 -9.07525 7038 ft 232 kts 236°
2026-04-23 21:39 38.35375 -9.09242 7041 ft 232 kts 238°
2026-04-23 21:39 38.34641 -9.11069 7040 ft 233 kts 251°
2026-04-23 21:39 38.34236 -9.13037 7044 ft 233 kts 258°
2026-04-23 21:40 38.33931 -9.15060 7045 ft 233 kts 260°
2026-04-23 21:40 38.33635 -9.17095 7042 ft 233 kts 260°
2026-04-23 21:40 38.33335 -9.19124 7041 ft 233 kts 259°
2026-04-23 21:40 38.33026 -9.21180 7046 ft 240 kts 259°
2026-04-23 21:41 38.32781 -9.23267 7042 ft 241 kts 268°
2026-04-23 21:41 38.32909 -9.25387 7042 ft 241 kts 280°
2026-04-23 21:41 38.33234 -9.27487 7043 ft 241 kts 282°
2026-04-23 21:41 38.33583 -9.29574 7041 ft 241 kts 282°
2026-04-23 21:42 38.34037 -9.32337 7042 ft 241 kts 282°
2026-04-23 21:42 38.34264 -9.33737 7045 ft 241 kts 282°
2026-04-23 21:42 38.34634 -9.35830 7039 ft 241 kts 288°
2026-04-23 21:42 38.35327 -9.37767 7041 ft 241 kts 301°
2026-04-23 21:43 38.36245 -9.39558 7042 ft 241 kts 304°
2026-04-23 21:43 38.37185 -9.41301 7041 ft 241 kts 304°
2026-04-23 21:43 38.38131 -9.43060 7042 ft 240 kts 304°
2026-04-23 21:43 38.39071 -9.44823 7045 ft 240 kts 304°
2026-04-23 21:44 38.40011 -9.46573 7045 ft 240 kts 307°
2026-04-23 21:44 38.41176 -9.48105 7042 ft 240 kts 321°
2026-04-23 21:44 38.42537 -9.49332 7046 ft 241 kts 326°
2026-04-23 21:44 38.43938 -9.50503 7043 ft 240 kts 326°
2026-04-23 21:45 38.45325 -9.51654 7044 ft 240 kts 328°
2026-04-23 21:45 38.46888 -9.52389 7022 ft 242 kts 358°
2026-04-23 21:45 38.48504 -9.51866 7034 ft 244 kts 31°
2026-04-23 21:45 38.49666 -9.50278 7035 ft 248 kts 64°
2026-04-23 21:46 38.50074 -9.48141 7049 ft 250 kts 82°
2026-04-23 21:46 38.50290 -9.45955 7046 ft 249 kts 82°
2026-04-23 21:46 38.50516 -9.43757 7044 ft 249 kts 82°
2026-04-23 21:46 38.50753 -9.41602 7043 ft 248 kts 81°
2026-04-23 21:47 38.51002 -9.39404 7040 ft 248 kts 81°
2026-04-23 21:47 38.51253 -9.37234 6880 ft 250 kts 81°
2026-04-23 21:47 38.51506 -9.35063 6508 ft 249 kts 81°
2026-04-23 21:47 38.51761 -9.32885 6188 ft 248 kts 81°
2026-04-23 21:48 38.52013 -9.30725 5880 ft 245 kts 81°
2026-04-23 21:48 38.52263 -9.28583 5577 ft 243 kts 81°
2026-04-23 21:48 38.52509 -9.26464 5281 ft 241 kts 81°
2026-04-23 21:48 38.52756 -9.24352 4991 ft 238 kts 79°
2026-04-23 21:49 38.53321 -9.22452 4802 ft 226 kts 47°
2026-04-23 21:49 38.54592 -9.21490 4663 ft 211 kts
2026-04-23 21:49 38.56009 -9.21706 4377 ft 205 kts 336°
2026-04-23 21:49 38.57297 -9.22470 4131 ft 202 kts 334°
2026-04-23 21:50 38.58570 -9.23201 4040 ft 200 kts 341°
2026-04-23 21:50 38.59956 -9.23289 3825 ft 204 kts 12°
2026-04-23 21:50 38.61288 -9.22708 3565 ft 203 kts 21°
2026-04-23 21:50 38.62533 -9.21999 3376 ft 187 kts 23°
2026-04-23 21:51 38.63694 -9.21327 3101 ft 175 kts 22°
2026-04-23 21:51 38.64784 -9.20721 2837 ft 165 kts 21°
2026-04-23 21:51 38.65819 -9.20166 2592 ft 155 kts 20°
2026-04-23 21:51 38.66777 -9.19656 2402 ft 145 kts 19°
2026-04-23 21:52 38.67708 -9.19160 2221 ft 144 kts 19°
2026-04-23 21:52 38.68636 -9.18665 2034 ft 144 kts 19°